User: anonymous   Login
Location: Cincinnati Observatory Center
(39.1389°N, 84.4225°W)
Time: 12:54:38
(UTC-05:00)
Language:

COSMOS 2428 - Orbit

View from above orbital plane
View from above orbital plane
View from above satellite
View from above satellite

Ground track
Ground track

The orbit data is extracted from the following two-line orbital elements,

1 31792U 07029A   16341.47697732 -.00000226  00000-0 -96705-4 0  9993
2 31792  70.9193  96.7193 0009851 224.5031 135.5299 14.12276721486867
Epoch (UTC): 06 December 2016 11:26:50
Eccentricity: 0.0009851
inclination: 70.9193°
perigee height: 844 km
apogee height: 859 km
right ascension of ascending node: 96.7193°
argument of perigee: 224.5031°
revolutions per day: 14.12276721
mean anomaly at epoch: 135.5299°
orbit number at epoch: 48686

The dashed part of the orbit path shows where the satellite is in the earth's shadow,  

DLR